When you browse on this site, cookies collect data to enhance your experience and personalize the content and advertising you see.
Visit our Privacy Policy to learn more. By continuing to use the site, you agree to this use of cookies and data.
  • In Denmark
  • List of Countries
  • For 7 days
  • Water Temperature
  • Satellite Maps
  • Weather Map
  • Weather Widgets
  • user-avatar
    Login

    Hourly Weather Adelaide

    Today, 14 December, Friday

    Time Temperature Precipitation Wind Pressure Humidity
    00:00 +13°C° 0.3 mm 11 mps 751 mmHg 78%
    01:00 +13°C° 0.4 mm 11 mps 750 mmHg 79%
    02:00 +14°C° 0.4 mm 11 mps 750 mmHg 80%
    03:00 +14°C° 0 mm 12 mps 748 mmHg 83%
    04:00 +14°C° 0.6 mm 12 mps 748 mmHg 83%
    05:00 +16°C° 0.6 mm 11 mps 748 mmHg 84%
    06:00 +17°C° 0.6 mm 11 mps 748 mmHg 85%
    07:00 +17°C° 0.3 mm 10 mps 749 mmHg 85%
    08:00 +17°C° 0.3 mm 10 mps 749 mmHg 84%
    09:00 +18°C° 0 mm 9 mps 749 mmHg 81%
    10:00 +19°C° 0.1 mm 9 mps 749 mmHg 74%
    11:00 +22°C° 0.1 mm 9 mps 749 mmHg 68%
    12:00 +23°C° 0.1 mm 9 mps 749 mmHg 61%
    13:00 +22°C° 0.1 mm 8 mps 749 mmHg 66%
    14:00 +21°C° 0.1 mm 8 mps 749 mmHg 71%
    15:00 +18°C° 0 mm 8 mps 749 mmHg 83%
    16:00 +18°C° 0.5 mm 7 mps 749 mmHg 84%
    17:00 +17°C° 0.5 mm 7 mps 750 mmHg 85%
    18:00 +17°C° 0.5 mm 6 mps 750 mmHg 86%
    19:00 +17°C° 0.1 mm 5 mps 750 mmHg 87%
    20:00 +17°C° 0.1 mm 5 mps 750 mmHg 88%
    21:00 +17°C° 0.1 mm 5 mps 751 mmHg 89%
    22:00 +18°C° 0 mm 4 mps 750 mmHg 90%
    23:00 +18°C° 0 mm 4 mps 750 mmHg 90%

    Tomorrow, 15 December, Saturday

    Time Temperature Precipitation Wind Pressure Humidity
    00:00 +17°C° 0 mm 3 mps 750 mmHg 91%
    01:00 +17°C° 0 mm 3 mps 750 mmHg 90%
    02:00 +17°C° 0 mm 2 mps 750 mmHg 89%
    03:00 +16°C° 0 mm 2 mps 750 mmHg 89%
    04:00 +17°C° 0 mm 2 mps 750 mmHg 85%
    05:00 +17°C° 0 mm 2 mps 750 mmHg 82%
    06:00 +18°C° 0 mm 2 mps 750 mmHg 79%
    07:00 +20°C° 0 mm 2 mps 750 mmHg 71%
    08:00 +21°C° 0 mm 2 mps 750 mmHg 64%
    09:00 +24°C° 0 mm 2 mps 750 mmHg 57%
    10:00 +24°C° 0.1 mm 3 mps 750 mmHg 56%
    11:00 +25°C° 0.1 mm 3 mps 750 mmHg 55%
    12:00 +25°C° 0.1 mm 4 mps 749 mmHg 55%
    13:00 +25°C° 0.2 mm 4 mps 749 mmHg 58%
    14:00 +23°C° 0.2 mm 5 mps 749 mmHg 62%
    15:00 +23°C° 0.2 mm 5 mps 748 mmHg 65%
    16:00 +22°C° 0.1 mm 5 mps 748 mmHg 70%
    17:00 +21°C° 0.1 mm 5 mps 748 mmHg 74%
    18:00 +21°C° 0.1 mm 5 mps 749 mmHg 79%
    19:00 +20°C° 0 mm 4 mps 749 mmHg 81%
    20:00 +20°C° 0 mm 4 mps 749 mmHg 84%
    21:00 +19°C° 0 mm 4 mps 750 mmHg 86%
    22:00 +19°C° 0.2 mm 4 mps 749 mmHg 87%
    23:00 +19°C° 0.2 mm 4 mps 749 mmHg 88%

    Day after tomorrow, 16 December, Sunday

    Time Temperature Precipitation Wind Pressure Humidity
    00:00 +18°C° 0.2 mm 4 mps 749 mmHg 88%
    01:00 +17°C° 0.1 mm 5 mps 749 mmHg 88%
    02:00 +17°C° 0.1 mm 5 mps 749 mmHg 89%
    03:00 +17°C° 0.1 mm 5 mps 749 mmHg 89%
    04:00 +17°C° 0.1 mm 5 mps 750 mmHg 89%
    05:00 +17°C° 0.1 mm 5 mps 750 mmHg 89%
    06:00 +17°C° 0.1 mm 5 mps 751 mmHg 89%
    07:00 +19°C° 0 mm 4 mps 751 mmHg 86%
    08:00 +19°C° 0 mm 4 mps 751 mmHg 84%
    09:00 +20°C° 0 mm 4 mps 752 mmHg 82%
    10:00 +20°C° 0 mm 4 mps 752 mmHg 79%
    11:00 +21°C° 0 mm 4 mps 752 mmHg 77%
    12:00 +21°C° 0 mm 4 mps 752 mmHg 74%
    13:00 +22°C° 0 mm 4 mps 752 mmHg 72%
    14:00 +22°C° 0 mm 4 mps 752 mmHg 69%
    15:00 +23°C° 0 mm 4 mps 752 mmHg 67%
    16:00 +22°C° 0 mm 4 mps 752 mmHg 68%
    17:00 +22°C° 0 mm 4 mps 752 mmHg 70%
    18:00 +22°C° 0 mm 4 mps 752 mmHg 71%
    19:00 +21°C° 0 mm 4 mps 753 mmHg 75%
    20:00 +20°C° 0 mm 3 mps 753 mmHg 79%
    21:00 +19°C° 0 mm 3 mps 754 mmHg 83%
    22:00 +19°C° 0 mm 3 mps 754 mmHg 84%
    23:00 +19°C° 0 mm 3 mps 754 mmHg 85%

    17 December, Monday

    Time Temperature Precipitation Wind Pressure Humidity
    00:00 +19°C° 0 mm 2 mps 754 mmHg 86%
    01:00 +18°C° 0 mm 2 mps 754 mmHg 87%
    02:00 +18°C° 0 mm 2 mps 754 mmHg 89%
    03:00 +18°C° 0 mm 2 mps 754 mmHg 90%
    04:00 +18°C° 0 mm 2 mps 754 mmHg 88%
    05:00 +18°C° 0 mm 2 mps 754 mmHg 86%
    06:00 +19°C° 0 mm 2 mps 755 mmHg 84%
    07:00 +20°C° 0 mm 2 mps 755 mmHg 77%
    08:00 +22°C° 0 mm 3 mps 755 mmHg 69%
    09:00 +25°C° 0 mm 3 mps 755 mmHg 62%
    10:00 +26°C° 0 mm 3 mps 755 mmHg 57%
    11:00 +27°C° 0 mm 3 mps 755 mmHg 52%
    12:00 +29°C° 0 mm 4 mps 755 mmHg 47%
    13:00 +29°C° 0 mm 4 mps 755 mmHg 48%
    14:00 +28°C° 0 mm 5 mps 755 mmHg 49%
    15:00 +28°C° 0 mm 6 mps 754 mmHg 50%
    16:00 +27°C° 0 mm 6 mps 755 mmHg 54%
    17:00 +26°C° 0 mm 6 mps 755 mmHg 58%
    18:00 +24°C° 0 mm 6 mps 755 mmHg 61%
    19:00 +22°C° 0 mm 6 mps 755 mmHg 65%
    20:00 +21°C° 0 mm 5 mps 755 mmHg 69%
    21:00 +20°C° 0 mm 5 mps 755 mmHg 73%
    22:00 +20°C° 0 mm 5 mps 755 mmHg 72%
    23:00 +21°C° 0 mm 5 mps 754 mmHg 72%

    18 December, Tuesday

    Time Temperature Precipitation Wind Pressure Humidity
    00:00 +21°C° 0 mm 5 mps 754 mmHg 72%
    01:00 +21°C° 0 mm 5 mps 754 mmHg 72%
    02:00 +21°C° 0 mm 4 mps 753 mmHg 72%
    03:00 +21°C° 0 mm 4 mps 753 mmHg 73%
    04:00 +21°C° 0 mm 4 mps 754 mmHg 71%
    05:00 +22°C° 0 mm 4 mps 754 mmHg 70%
    06:00 +22°C° 0 mm 5 mps 754 mmHg 68%
    07:00 +25°C° 0 mm 4 mps 755 mmHg 61%
    08:00 +27°C° 0 mm 4 mps 755 mmHg 53%
    09:00 +30°C° 0 mm 4 mps 755 mmHg 46%
    10:00 +32°C° 0 mm 4 mps 754 mmHg 42%
    11:00 +33°C° 0 mm 4 mps 753 mmHg 37%
    12:00 +35°C° 0 mm 4 mps 753 mmHg 33%
    13:00 +35°C° 0 mm 4 mps 752 mmHg 31%
    14:00 +35°C° 0 mm 4 mps 751 mmHg 30%
    15:00 +36°C° 0 mm 4 mps 750 mmHg 28%
    16:00 +36°C° 0 mm 4 mps 750 mmHg 28%
    17:00 +36°C° 0 mm 4 mps 749 mmHg 27%
    18:00 +36°C° 0 mm 5 mps 749 mmHg 27%
    19:00 +35°C° 0 mm 5 mps 749 mmHg 27%
    20:00 +34°C° 0 mm 5 mps 749 mmHg 28%
    21:00 +33°C° 0 mm 5 mps 749 mmHg 29%
    22:00 +32°C° 0 mm 5 mps 748 mmHg 30%
    23:00 +32°C° 0 mm 5 mps 748 mmHg 31%

    19 December, Wednesday

    Time Temperature Precipitation Wind Pressure Humidity
    00:00 +32°C° 0 mm 5 mps 748 mmHg 32%
    01:00 +29°C° 0 mm 5 mps 748 mmHg 39%
    02:00 +28°C° 0 mm 5 mps 748 mmHg 46%
    03:00 +26°C° 0 mm 5 mps 748 mmHg 53%
    04:00 +26°C° 0 mm 5 mps 749 mmHg 54%
    05:00 +24°C° 0 mm 6 mps 750 mmHg 55%
    06:00 +24°C° 0 mm 6 mps 750 mmHg 56%
    07:00 +26°C° 0 mm 7 mps 751 mmHg 55%
    08:00 +26°C° 0 mm 7 mps 751 mmHg 54%
    09:00 +27°C° 0 mm 8 mps 751 mmHg 52%
    10:00 +27°C° 0 mm 8 mps 751 mmHg 53%
    11:00 +27°C° 0 mm 8 mps 751 mmHg 53%
    12:00 +28°C° 0 mm 8 mps 751 mmHg 53%
    13:00 +27°C° 0 mm 8 mps 751 mmHg 54%
    14:00 +27°C° 0 mm 8 mps 751 mmHg 55%
    15:00 +27°C° 0 mm 8 mps 751 mmHg 56%
    16:00 +26°C° 0 mm 7 mps 751 mmHg 60%
    17:00 +23°C° 0 mm 7 mps 752 mmHg 65%
    18:00 +22°C° 0 mm 7 mps 753 mmHg 70%
    19:00 +21°C° 0 mm 7 mps 753 mmHg 73%
    20:00 +20°C° 0 mm 6 mps 754 mmHg 76%
    21:00 +19°C° 0 mm 6 mps 754 mmHg 79%
    22:00 +19°C° 0.1 mm 6 mps 755 mmHg 79%
    23:00 +19°C° 0.1 mm 6 mps 755 mmHg 79%
    Show more